Location: Caicarita
(10.0502°N, 67.6875°W)
Time: 20:26:04
(UTC+00:00)

Delta 2 Rocket - Pass Details

Date: 05 August 2024
Orbit: 890 x 1677 km, 26.4° (Epoch: 07 September)

Event Time Altitude Azimuth Distance (km) Brightness Sun altitude
Rises 23:24:01 0° 238° (WSW) 3,562 7.6 -8.3°
Reaches altitude 10° 23:26:29 10° 236° (SW) 2,675 6.9 -8.8°
Maximum altitude 23:32:55 73° 152° (SSE) 1,104 4.2 -10.3°
Drops below altitude 10° 23:40:34 10° 69° (ENE) 3,164 6.2 -12.1°
Enters shadow 23:42:29 - 67° (ENE) 3,829 6.7 -12.5°
